Lahr, Germany

4:47 PM CET on November 21, 2019 (GMT +0100)
Lahr

Weather History for EDTL - September, 2019

Change the Weather History Date:

Friday, September 6, 2019

  Actual Average (LFST) Record (LFST)
Temperature  
Mean Temperature 60 °F -  
Max Temperature 69 °F 71 °F 86 °F (2013)
Min Temperature 51 °F 52 °F 46 °F (1996)
Degree Days  
Heating Degree Days 5    
Growing Degree Days 10 (Base 50)    
Moisture  
Dew Point 48 °F    
Average Humidity 60    
Maximum Humidity 88    
Minimum Humidity 38    
Precipitation  
Precipitation 0.00 in - - ()
Sea Level Pressure  
Sea Level Pressure 30.20 in    
Wind  
Wind Speed 6 mph ()    
Max Wind Speed 13 mph    
Max Gust Speed -    
Visibility 12.6 miles    
Events Rain    
Averages and records for this station are not official NWS values.
T = Trace of Precipitation, MM = Missing Value Source: Averaged Metar Reports

Daily Weather History Graph

Daily Weather History Graph

Search for Another Location

Airport or City:

Astronomy

Sep. 06, 2019 Rise Set
Actual Time 6:52 AM CEST 8:00 PM CEST
Civil Twilight 6:20 AM CEST 8:32 PM CEST
Nautical Twilight 5:41 AM CEST 9:11 PM CEST
Astronomical Twilight 5:00 AM CEST 9:52 PM CEST
Moon 3:20 PM CEST (9/6) No Moon Set
Length of Visible Light 14h 12m
Length of Day
13h 08m
First Quarter, 53% of the Moon is Illuminated
Sep 6
First Quarter
Sep 14
Full
Sep 22
Last Quarter
Sep 28
New
Oct 5
First Quarter

Hourly Weather History & Observations

Time (CEST) Temp. Dew Point Humidity Pressure Visibility Wind Dir Wind Speed Gust Speed Precip Events Conditions
3:00 AM 58 °F 46 °F 55% 30.25 in 28 mi NNE 13.4 mph - - Rain Rain
6:00 AM 52 °F 46 °F 73% 30.25 in 22 mi NNE 6.7 mph - -   Overcast
7:00 AM 52 °F 47 °F 76% 30.26 in 19 mi NNE 4.5 mph - -   Overcast
7:20 AM 51.8 °F 46.4 °F 82% 30.24 in - North 6.9 mph - N/A   Clear
7:50 AM 51.8 °F 48.2 °F 88% 30.24 in - North 6.9 mph - N/A   Clear
8:20 AM 51.8 °F 48.2 °F 88% 30.24 in - North 4.6 mph - N/A   Clear
8:50 AM 53.6 °F 48.2 °F 82% 30.24 in - North 4.6 mph - N/A   Clear
9:20 AM 53.6 °F 48.2 °F 82% 30.24 in - North 6.9 mph - N/A   Clear
9:50 AM 55.4 °F 48.2 °F 77% 30.24 in - North 8.1 mph - N/A   Clear
10:20 AM 57.2 °F 48.2 °F 72% 30.24 in - NNE 8.1 mph - N/A   Clear
10:50 AM 57.2 °F 48.2 °F 72% 30.24 in - NNE 8.1 mph - N/A   Clear
11:20 AM 60.8 °F 50.0 °F 68% 30.24 in - NNE 6.9 mph - N/A   Clear
11:50 AM 62.6 °F 50.0 °F 63% 30.24 in - North 8.1 mph - N/A   Clear
12:20 PM 64.4 °F 50.0 °F 59% 30.21 in - North 8.1 mph - N/A   Clear
12:50 PM 64.4 °F 48.2 °F 56% 30.21 in - North 6.9 mph - N/A   Clear
1:00 PM 65 °F 48 °F 43% 30.22 in 25 mi NNE 6.7 mph - -   Overcast
1:20 PM 64.4 °F 48.2 °F 56% 30.21 in - NE 8.1 mph - N/A   Clear
1:50 PM 68.0 °F 50.0 °F 52% 30.21 in - Variable 4.6 mph - N/A   Clear
2:50 PM 69.8 °F 48.2 °F 46% 30.18 in 6.2 mi NNE 8.1 mph - N/A   Scattered Clouds
3:20 PM 68.0 °F 48.2 °F 49% 30.18 in - Variable 6.9 mph - N/A   Clear
3:50 PM 68.0 °F 48.2 °F 49% 30.15 in - NE 6.9 mph - N/A   Clear
4:20 PM 66.2 °F 48.2 °F 52% 30.15 in - NE 8.1 mph - N/A   Clear
4:50 PM 68.0 °F 48.2 °F 49% 30.15 in - NNE 6.9 mph - N/A   Clear
5:20 PM 68.0 °F 48.2 °F 49% 30.15 in - NE 5.8 mph - N/A   Clear
5:50 PM 68.0 °F 46.4 °F 46% 30.15 in - NE 4.6 mph - N/A   Clear
6:20 PM 68.0 °F 46.4 °F 46% 30.15 in - NNE 5.8 mph - N/A   Clear
6:50 PM 68.0 °F 46.4 °F 46% 30.15 in - North 5.8 mph - N/A   Clear
7:00 PM 67 °F 47 °F 38% 30.14 in 28 mi North 4.5 mph - -   Overcast
7:20 PM 68.0 °F 46.4 °F 46% 30.15 in - NNE 5.8 mph - N/A   Clear
7:50 PM 66.2 °F 46.4 °F 49% 30.15 in - North 5.8 mph - N/A   Clear
9:00 PM 60 °F 47 °F 53% 30.16 in 25 mi NNE 2.2 mph - -   Overcast